Wind_Speed
12 11 12 13 14 15 17 18 20 21 22 22 23 23 23 23 24 26 28 29 30 31 32 31 31 32 32 33 33 34 35 36
11 11 13 15 15 16 17 19 20 21 22 23 23 24 24 25 26 28 30 31 33 34 34 34 33 32 31 30 32 33 35 35
10 11 13 15 16 17 18 19 20 22 23 22 24 25 26 28 29 31 33 34 36 36 36 34 33 33 32 30 30 33 34 34
10 11 13 14 15 17 18 19 21 21 22 23 24 25 26 28 31 32 33 34 36 36 36 34 34 32 33 31 31 31 32 35
10 11 11 13 14 15 17 19 20 22 22 23 24 26 27 30 32 34 35 35 35 34 35 34 33 32 32 31 31 31 32 33
9 9 10 12 14 16 19 21 22 24 26 26 27 28 30 32 34 35 35 36 35 34 33 32 32 31 31 31 31 31 31 31
9 9 10 12 13 17 19 21 23 24 26 27 27 30 32 33 34 34 34 34 34 33 33 32 31 31 30 31 31 30 31 31
9 9 11 14 16 18 20 22 24 26 27 28 29 31 33 34 34 34 33 34 34 33 32 31 30 30 29 29 30 31 32 32
9 9 12 17 20 21 23 24 26 27 28 30 31 32 34 34 34 34 34 33 32 32 30 30 29 29 28 29 30 31 32 32
8 11 15 20 22 23 24 26 27 29 30 32 33 34 34 34 33 33 33 33 32 31 30 29 29 28 28 28 30 30 31 31
9 12 18 23 26 26 27 28 29 31 33 34 34 34 34 34 33 33 33 33 33 32 30 31 30 29 29 28 29 30 30 31
10 15 20 26 29 31 32 34 35 34 35 35 35 34 34 34 33 32 32 32 31 31 31 30 31 31 31 28 27 28 29 30
12 17 22 27 32 31 31 31 32 33 34 34 34 35 34 33 31 31 31 30 30 31 31 30 29 30 33 31 28 27 29 30
14 19 24 29 33 33 31 32 32 33 34 35 36 34 33 32 31 30 31 32 31 30 30 29 28 29 32 32 30 25 25 28
16 21 26 30 32 32 32 32 32 32 32 33 34 34 33 32 31 31 31 32 31 29 30 30 31 25 27 29 29 20 27 28
18 22 27 33 32 31 32 31 31 31 32 33 33 33 31 30 29 30 32 34 33 32 29 28 28 24 23 25 26 23 24 28
19 23 27 32 31 30 30 29 30 30 31 32 32 31 29 28 29 31 33 35 33 31 30 29 27 27 25 25 27 27 23 27
19 24 29 30 29 29 28 28 29 30 32 32 31 28 26 27 30 32 33 33 32 31 29 29 29 30 30 30 30 30 26 27
19 24 29 28 28 27 27 29 31 33 33 33 32 29 26 27 31 33 34 33 32 32 32 31 31 30 30 31 31 32 31 30
19 26 26 26 26 26 27 29 30 32 32 32 32 28 28 31 33 34 34 34 33 33 32 31 29 29 27 26 27 28 30 31
Wind_Direction
278 276 280 286 289 292 293 295 295 297 297 298 297 297 297 296 296 296 296 295 294 292 290 287 283 279 274 271 267 263 257 253
275 282 289 292 292 294 295 296 298 299 299 302 301 300 298 299 299 299 300 300 298 296 293 291 287 283 277 271 267 262 258 253
273 280 286 289 293 297 297 296 303 304 303 304 306 307 307 307 306 307 306 304 301 298 295 293 290 286 281 275 267 262 260 256
275 282 285 290 295 301 305 307 310 310 311 310 309 308 308 307 306 305 304 303 301 300 297 294 291 288 283 278 271 264 258 256
272 278 285 292 303 310 313 315 314 314 312 313 312 312 311 310 309 308 307 306 303 300 298 295 292 287 283 278 272 267 259 252
269 284 297 306 314 321 322 321 323 322 321 319 317 316 315 314 312 311 311 309 306 303 299 295 291 286 281 276 270 265 261 255
267 288 309 321 323 326 325 325 325 324 319 318 317 317 316 314 313 313 312 310 308 304 300 296 292 286 280 274 268 262 258 255
272 298 323 333 332 329 328 329 327 325 322 320 319 318 318 317 317 316 314 312 308 304 301 297 292 285 277 269 266 263 259 254
279 314 332 340 338 337 334 332 329 327 324 322 322 322 322 321 320 318 314 311 308 306 302 296 289 281 274 269 263 258 255 251
299 327 338 341 339 336 335 333 330 326 326 326 326 326 325 322 320 317 314 311 309 306 301 294 289 283 277 270 265 258 251 245
309 333 341 341 340 336 334 333 331 331 330 329 328 325 324 323 321 318 315 314 313 310 305 299 291 282 275 269 264 258 251 246
316 335 339 339 338 340 337 336 334 331 330 329 327 326 327 326 323 319 317 315 314 309 305 299 294 288 281 274 267 261 255 249
319 332 336 336 336 336 334 331 329 329 329 325 328 330 328 325 321 318 315 315 313 309 304 299 293 290 284 278 270 265 257 250
319 327 330 334 333 332 330 330 330 331 330 331 331 330 327 324 321 320 319 317 313 308 303 298 293 288 283 278 271 258 260 250
315 320 325 330 330 328 331 332 333 330 330 332 332 330 328 326 324 321 317 313 311 306 303 300 295 290 284 281 278 263 250 247
308 317 322 327 328 329 331 332 332 332 335 335 332 331 329 325 322 319 317 316 314 311 308 304 298 294 282 280 277 271 250 241
309 312 320 325 328 331 331 333 333 336 338 337 336 333 327 324 323 323 321 318 315 313 310 305 298 292 283 275 271 266 252 246
307 313 321 326 330 331 333 334 339 342 343 340 337 332 329 327 326 324 322 318 316 313 307 302 295 287 282 274 266 261 251 243
309 316 322 330 331 332 337 342 346 347 344 340 338 338 334 331 329 328 324 321 317 313 309 300 290 281 273 266 259 254 248 237
314 320 328 329 332 339 343 350 350 348 344 344 343 340 338 335 334 332 328 324 319 313 307 300 291 284 278 270 261 252 245 236
Height
3105 3104 3103 3103 3101 3100 3098 3097 3095 3093 3091 3089 3086 3084 3082 3080 3078 3075 3073 3071 3069 3068 3066 3065 3063 3062 3063 3062 3063 3064 3065 3067
3104 3103 3102 3101 3100 3098 3096 3094 3092 3090 3087 3085 3082 3079 3078 3075 3072 3070 3067 3064 3062 3060 3057 3056 3054 3053 3053 3055 3055 3055 3056 3058
3103 3102 3100 3099 3097 3095 3093 3092 3088 3086 3083 3080 3077 3074 3071 3068 3065 3063 3060 3057 3054 3051 3049 3047 3046 3044 3044 3045 3046 3046 3046 3049
3101 3100 3098 3097 3095 3093 3090 3088 3085 3082 3079 3076 3073 3070 3067 3064 3060 3057 3054 3051 3047 3044 3041 3039 3037 3036 3035 3035 3036 3037 3039 3040
3099 3098 3097 3095 3093 3090 3087 3084 3081 3078 3075 3072 3068 3065 3062 3058 3054 3050 3046 3043 3040 3037 3034 3031 3029 3028 3027 3026 3027 3028 3030 3032
3098 3097 3095 3093 3090 3087 3084 3080 3077 3073 3069 3066 3062 3058 3054 3050 3046 3042 3037 3034 3032 3029 3026 3023 3021 3020 3019 3018 3019 3019 3020 3023
3096 3095 3093 3090 3088 3084 3081 3078 3074 3070 3066 3062 3058 3053 3049 3044 3040 3035 3031 3027 3023 3021 3017 3015 3013 3012 3011 3010 3010 3011 3012 3014
3095 3093 3090 3088 3085 3082 3078 3074 3070 3066 3061 3057 3052 3047 3042 3037 3033 3028 3023 3019 3016 3013 3009 3006 3005 3003 3003 3003 3003 3003 3004 3006
3093 3091 3088 3085 3082 3078 3074 3070 3065 3061 3056 3051 3046 3041 3035 3030 3025 3020 3015 3012 3008 3004 3001 2998 2996 2995 2994 2994 2994 2995 2996 2997
3091 3089 3086 3083 3079 3075 3071 3066 3061 3056 3051 3045 3040 3034 3028 3023 3018 3013 3008 3004 2999 2996 2992 2990 2987 2985 2984 2984 2984 2986 2987 2989
3089 3087 3083 3079 3075 3071 3066 3061 3056 3050 3045 3039 3033 3028 3023 3016 3010 3005 3001 2996 2991 2987 2984 2979 2978 2977 2976 2976 2975 2976 2978 2980
3087 3084 3081 3077 3071 3066 3061 3055 3050 3045 3040 3034 3028 3022 3015 3008 3003 2998 2993 2988 2984 2979 2975 2972 2968 2966 2965 2965 2966 2966 2968 2971
3085 3082 3078 3074 3069 3065 3059 3054 3048 3042 3035 3029 3022 3015 3008 3003 2997 2992 2987 2982 2977 2972 2968 2965 2962 2958 2955 2955 2957 2958 2959 2961
3083 3080 3076 3072 3067 3061 3056 3050 3044 3037 3031 3023 3015 3010 3004 2997 2991 2985 2979 2974 2970 2965 2961 2957 2954 2951 2947 2945 2946 2951 2950 2951
3081 3078 3074 3070 3065 3059 3053 3046 3040 3034 3026 3019 3011 3004 2997 2990 2984 2978 2974 2969 2964 2958 2953 2948 2944 2944 2940 2937 2936 2941 2939 2942
3079 3076 3072 3067 3062 3056 3049 3044 3037 3030 3022 3014 3007 2999 2991 2985 2979 2974 2968 2962 2955 2949 2944 2939 2935 2934 2932 2930 2928 2931 2933 2936
3078 3074 3070 3065 3059 3053 3047 3040 3034 3025 3017 3010 3001 2994 2987 2981 2975 2968 2961 2955 2948 2941 2935 2931 2928 2924 2924 2923 2921 2921 2925 2926
3076 3072 3068 3063 3056 3051 3044 3037 3029 3021 3013 3005 2998 2991 2984 2977 2970 2963 2956 2948 2940 2934 2928 2922 2919 2915 2913 2913 2912 2912 2916 2918
3075 3071 3066 3060 3054 3048 3041 3034 3025 3017 3010 3001 2994 2987 2980 2973 2966 2958 2949 2940 2933 2925 2918 2913 2909 2905 2903 2901 2901 2901 2903 2908
3074 3070 3064 3058 3052 3046 3039 3031 3023 3016 3008 2999 2991 2983 2976 2968 2960 2951 2942 2933 2924 2916 2908 2901 2896 2892 2890 2889 2889 2891 2893 2897